[[{"header":{"parameterUnit":"m.s-1","parameterCategory":1,"la1":30.2991,"la2":30.254,"lo1":-89.0895,"lo2":-89.0444,"dy":0.0017,"dx":0.0017,"nx":28,"ny":28,"refTime":"2023-10-20T09:00:00:Z","depth":0,"parameterNumber":2,"parameterNumberName":"U-component_of_WINDS"},"data":[0,0,0,0,0,0,0,0,0,0,0,0,0,0,0,0,0,0,0,0,0,0,0,0,0,0,0,0,0,0,0,0,0,0,0,0,0,0,0,0,0,0,0,0,0,0,0,0,0,0,0,0,0,0,0,0,0,0,-1.9647,-1.9648,0,-1.9738,-1.9739,-1.974,-1.9707,-1.9705,-1.9703,-1.9701,-1.9796,-1.98,-1.9804,0,0,0,0,0,0,0,0,0,0,0,0,0,-1.9446,-1.945,-1.9647,-1.9648,-1.965,-1.9738,-1.9739,-1.9741,-1.9708,-1.9705,-1.9703,-1.97,-1.9794,-1.98,-1.9805,0,0,0,0,0,0,0,0,0,0,0,0,0,-1.9535,-1.9451,-1.9647,-1.9644,-1.9644,-1.9738,-1.9739,-1.9741,-1.9708,-1.9705,-1.9702,-1.9699,-1.9793,-1.9799,-1.9806,-1.9908,0,0,-1.9826,-1.9829,0,0,0,0,0,0,0,0,-1.953,-1.9542,-1.9643,-1.9644,-1.9645,-1.9708,-1.9703,-1.9797,-1.9709,-1.9684,-1.9701,-1.9698,-1.9769,-1.9778,-1.9801,-1.9912,-1.9916,-1.9826,-1.983,-1.9833,-1.9835,0,0,0,0,0,0,0,-1.9524,-1.9538,-1.9683,-1.9645,-1.9646,-1.9638,-1.9647,-1.9721,-1.9743,-1.9686,-1.9684,-1.9695,-1.9769,-1.9795,-1.9803,-1.9918,-1.9826,-1.9832,-1.9836,-1.9839,-2.0118,-2.0121,0,0,0,0,0,0,-1.9517,-1.9533,-1.968,-1.9686,-1.9579,-1.9644,-1.9654,-1.9691,-1.9742,-1.9747,-1.9697,-1.9693,-1.9785,-1.9796,-1.9807,-1.993,-1.9833,-1.9839,-1.9843,-2.0114,-2.0119,-2.0122,0,0,0,0,0,0,-1.9513,-1.9531,-1.9677,-1.9609,-1.9627,-1.9651,-1.9692,-1.9694,-1.972,-1.9751,-1.9754,-1.972,-1.9783,-1.9797,-1.9883,-1.9933,-1.9842,-1.9848,-2.011,-2.0116,-2.012,-2.0179,0,0,0,0,0,0,-1.9507,-1.9529,-1.9568,-1.961,-1.9631,-1.9752,-1.9695,-1.9698,-1.9732,-1.9727,-1.9773,-1.9777,-1.9782,-1.9873,-1.989,-1.9941,-1.9854,-2.0106,-2.0113,-2.0119,-2.0172,-2.0185,-2.0196,0,0,0,0,0,-1.95,-1.9581,-1.957,-1.9588,-1.968,-1.9754,-1.9766,-1.977,-1.9736,-1.9776,-1.9795,-1.9776,-1.9925,-1.9882,-1.99,-1.9954,-2.0103,-2.0111,-2.0118,-2.0167,-2.0183,-2.0196,0,0,0,0,0,0,-1.9545,-1.9587,-1.9575,-1.9672,-1.971,-1.9749,-1.9799,-1.9786,-1.9835,-1.9828,-1.983,-1.9841,-1.9929,-1.995,-1.9902,-2.0056,-2.0009,-2.0021,-2.004,-2.0055,-2.0066,-2.006,-1.9859,0,0,0,0,0,-1.9566,-1.9623,-1.9656,-1.9738,-1.9758,-1.9775,-1.9808,-1.9807,-1.9846,-1.9862,-1.9888,-1.9927,-1.9983,-2.002,-2.0073,-2.0175,-2.0184,-2.0221,-2.0232,-2.0242,-2.0252,-2.0308,-2.0325,-2.0148,-2.0148,-2.0147,0,0,-1.961,-1.964,-1.9676,-1.9748,-1.9777,-1.9836,-1.9789,-1.9853,-1.9897,-1.9872,-1.9955,-1.9975,-2.0019,-2.0114,-2.0157,-2.0134,-2.0303,-2.0252,-2.0259,-2.0265,-2.0318,-2.0335,-2.035,-2.0153,-2.0152,-2.0151,0,0,-1.9721,-1.9749,-1.9821,-1.9851,-1.9896,-1.9907,-1.9924,-1.9965,-1.9977,-2.006,-2.0043,-2.0095,-2.0191,-2.0223,-2.0252,-2.0375,-2.0359,-2.0392,-2.0454,-2.0509,-2.0523,-2.0535,-2.058,-2.0595,-2.0402,-2.0402,-2.0402,0,-1.9771,-1.9859,-1.986,-1.9926,-1.9958,-1.9938,-2.0011,-2.004,-2.01,-2.0123,-2.0096,-2.0216,-2.0244,-2.0346,-2.0376,-2.04,-2.042,-2.0387,-2.052,-2.0533,-2.0545,-2.0587,-2.0604,-2.0406,-2.0405,-2.0405,-2.0405,0,-1.9918,-1.9979,-2.0032,-2.009,-2.0128,-2.0198,-2.0209,-2.0248,-2.0244,-2.0257,-2.0342,-2.0375,-2.0434,-2.0458,-2.0455,-2.056,-2.0544,-2.0519,-2.0472,-2.0565,-2.0605,-2.0621,-2.0411,-2.041,-2.0409,-2.0408,0,0,-2.0061,-2.0118,-2.0138,-2.0164,-2.0211,-2.0259,-2.0327,-2.0385,-2.0418,-2.046,-2.0518,-2.0599,-2.0576,-2.0609,-2.0608,-2.0656,-2.0752,-2.0625,-2.0626,-2.0648,-2.0871,-2.089,-2.0909,-2.0741,-2.0745,-2.0747,-2.0867,0,-2.0177,-2.0296,-2.0299,-2.0409,-2.0465,-2.0446,-2.0506,-2.0542,-2.0556,-2.0607,-2.0623,-2.0681,-2.0645,-2.0665,-2.0711,-2.0731,-2.0797,-2.0722,-2.0796,-2.0799,-2.0786,-2.0929,-2.095,-2.1062,-2.0883,-2.0885,-2.0887,0,-2.0328,-2.0374,-2.0489,-2.0529,-2.0553,-2.0606,-2.0659,-2.0707,-2.0748,-2.0755,-2.0791,-2.0784,-2.0854,-2.0804,-2.09,-2.0849,-2.0879,-2.0894,-2.0898,-2.0906,-2.0849,-2.0942,-2.1098,-2.1115,-2.0912,-2.091,-2.0908,0,-2.0421,-2.0512,-2.0593,-2.0616,-2.0664,-2.0702,-2.0724,-2.0761,-2.0795,-2.0842,-2.0864,-2.0918,-2.0948,-2.099,-2.0997,-2.096,-2.1095,-2.1045,-2.1103,-2.1103,-2.1133,-2.1132,-2.1297,-2.1151,-2.1151,-2.1151,-2.115,0,-2.055,-2.0622,-2.0636,-2.0686,-2.0766,-2.0768,-2.0847,-2.0865,-2.0899,-2.0952,-2.0939,-2.0989,-2.0996,-2.1048,-2.1054,-2.1134,-2.1147,-2.1155,-2.1156,-2.1157,-2.1156,-2.1178,-2.117,-2.1155,-2.1154,-2.1153,-2.1153,0,-2.0669,-2.0681,-2.0768,-2.0806,-2.0817,-2.0874,-2.0907,-2.0955,-2.0968,-2.1035,-2.1052,-2.1072,-2.1133,-2.1144,-2.1216,-2.122,-2.1315,-2.1308,-2.1302,-2.1301,-2.1359,-2.1354,-2.1545,-2.157,-2.1408,-2.1409,-2.141,0,-2.0751,-2.0806,-2.0849,-2.0884,-2.0908,-2.0964,-2.0999,-2.1003,-2.104,-2.109,-2.1132,-2.1191,-2.1239,-2.1337,-2.1358,-2.1413,-2.1408,-2.1471,-2.1416,-2.1415,-2.141,-2.1407,-2.1412,-2.1482,-2.1483,-2.1485,-2.1486,0,-2.0896,-2.0899,-2.095,-2.1003,-2.1045,-2.1087,-2.1127,-2.1156,-2.1166,-2.1208,-2.127,-2.1307,-2.138,-2.1439,-2.1494,-2.1516,-2.1504,-2.1503,-2.1519,-2.1521,-2.1516,-2.152,-2.1331,-2.1499,-2.1498,-2.1497,-2.1496,-2.1495,-2.1,-2.1047,-2.1086,-2.1143,-2.1173,-2.121,-2.1257,-2.1276,-2.1327,-2.1387,-2.1386,-2.1454,-2.1493,-2.1565,-2.1591,-2.1644,-2.1624,-2.1648,-2.1654,-2.166,-2.1666,-2.1506,-2.1654,-2.1654,-2.1653,-2.1653,-2.1653,0,-2.1144,-2.1168,-2.122,-2.1276,-2.1321,-2.1304,-2.1347,-2.1386,-2.1446,-2.1483,-2.153,-2.1601,-2.1658,-2.1684,-2.1741,-2.1778,-2.1774,-2.1793,-2.1791,-2.1796,-2.168,-2.1661,-2.1796,-2.1796,-2.1796,-2.1796,-2.1796,-2.1796,-2.1225,-2.1305,-2.1313,-2.1408,-2.1431,-2.1497,-2.1523,-2.1558,-2.1587,-2.1667,-2.1715,-2.1731,-2.1763,-2.1822,-2.1874,-2.188,-2.1902,-2.1924,-2.1928,-2.1819,-2.1805,-2.1791,-2.1772,-2.1929,-2.1929,-2.2039,-2.204,-2.2041]},{"header":{"parameterUnit":"m.s-1","parameterCategory":1,"la1":30.2991,"la2":30.254,"lo1":-89.0895,"lo2":-89.0444,"dy":0.0017,"dx":0.0017,"nx":28,"ny":28,"refTime":"2023-10-20T09:00:00:Z","depth":0,"parameterNumber":3,"parameterNumberName":"V-component_of_WINDS"},"data":[0,0,0,0,0,0,0,0,0,0,0,0,0,0,0,0,0,0,0,0,0,0,0,0,0,0,0,0,0,0,0,0,0,0,0,0,0,0,0,0,0,0,0,0,0,0,0,0,0,0,0,0,0,0,0,0,0,0,-2.9635,-2.9635,0,-2.9691,-2.9691,-2.9692,-2.9648,-2.9646,-2.9644,-2.9642,-2.9696,-2.9699,-2.9702,0,0,0,0,0,0,0,0,0,0,0,0,0,-2.9486,-2.9489,-2.9635,-2.9635,-2.9636,-2.969,-2.9691,-2.9692,-2.9648,-2.9646,-2.9643,-2.9641,-2.9695,-2.9698,-2.9702,0,0,0,0,0,0,0,0,0,0,0,0,0,-2.9547,-2.949,-2.9635,-2.9621,-2.962,-2.969,-2.9691,-2.9692,-2.9648,-2.9646,-2.9643,-2.964,-2.9694,-2.9698,-2.9703,-2.9788,0,0,-2.9717,-2.9719,0,0,0,0,0,0,0,0,-2.9544,-2.9553,-2.9622,-2.9622,-2.9621,-2.9659,-2.9658,-2.9724,-2.9649,-2.9638,-2.9642,-2.9639,-2.9686,-2.9691,-2.9707,-2.9791,-2.9793,-2.9718,-2.9721,-2.9723,-2.9724,0,0,0,0,0,0,0,-2.954,-2.955,-2.9657,-2.9623,-2.9623,-2.9611,-2.9616,-2.9671,-2.9677,-2.9638,-2.9635,-2.9643,-2.9685,-2.9703,-2.9708,-2.9794,-2.9718,-2.9722,-2.9725,-2.9727,-2.995,-2.9953,0,0,0,0,0,0,-2.9537,-2.9547,-2.9655,-2.9658,-2.9575,-2.9616,-2.9622,-2.965,-2.9676,-2.9677,-2.9645,-2.9641,-2.9696,-2.9703,-2.971,-2.9812,-2.9723,-2.9727,-2.973,-2.9947,-2.9951,-2.9954,0,0,0,0,0,0,-2.9534,-2.9547,-2.9653,-2.9602,-2.9614,-2.9621,-2.9653,-2.9652,-2.9671,-2.9681,-2.9681,-2.9663,-2.9694,-2.9703,-2.9769,-2.9813,-2.9729,-2.9734,-2.9944,-2.9948,-2.9953,-3.0017,0,0,0,0,0,0,-2.953,-2.9547,-2.958,-2.9603,-2.9617,-2.9712,-2.9656,-2.9656,-2.9679,-2.9674,-2.9698,-2.9699,-2.9693,-2.9763,-2.9774,-2.9818,-2.9737,-2.994,-2.9946,-2.9951,-3.0011,-3.0023,-3.0034,0,0,0,0,0,-2.9525,-2.9595,-2.9582,-2.9595,-2.9659,-2.9715,-2.9723,-2.9716,-2.9683,-2.9716,-2.9723,-2.9698,-2.9807,-2.977,-2.9782,-2.9829,-2.9937,-2.9944,-2.9951,-3.0006,-3.0021,-3.0033,0,0,0,0,0,0,-2.9576,-2.9598,-2.9583,-2.9663,-2.9688,-2.9708,-2.9749,-2.9732,-2.9765,-2.9758,-2.9746,-2.9752,-2.9822,-2.9831,-2.979,-2.9913,-2.9866,-2.9876,-2.9904,-2.9918,-2.9929,-2.9925,-2.9741,0,0,0,0,0,-2.9596,-2.9641,-2.9657,-2.9726,-2.9739,-2.9742,-2.9766,-2.9758,-2.9783,-2.9793,-2.9804,-2.9828,-2.9867,-2.9893,-2.993,-3.0012,-3.0016,-3.005,-3.0061,-3.0071,-3.0079,-3.0123,-3.0138,-2.9977,-2.9977,-2.9977,0,0,-2.9639,-2.9657,-2.9685,-2.9737,-2.9755,-2.98,-2.9751,-2.9801,-2.9834,-2.98,-2.9863,-2.9873,-2.9898,-2.9973,-3.0006,-2.9983,-3.0125,-3.0079,-3.0087,-3.009,-3.0132,-3.0147,-3.0161,-2.9982,-2.9981,-2.998,0,0,-2.974,-2.9759,-2.9818,-2.9837,-2.9866,-2.9867,-2.9882,-2.9904,-2.991,-2.9973,-2.9948,-2.9987,-3.0055,-3.0074,-3.0093,-3.0202,-3.018,-3.0214,-3.0273,-3.0316,-3.0329,-3.034,-3.0379,-3.0393,-3.0222,-3.0222,-3.0223,0,-2.979,-2.9859,-2.985,-2.9903,-2.9926,-2.9898,-2.9957,-2.9976,-3.0014,-3.003,-3.0004,-3.0089,-3.0104,-3.0183,-3.021,-3.0226,-3.0241,-3.0211,-3.0328,-3.0339,-3.035,-3.0386,-3.0401,-3.0226,-3.0226,-3.0226,-3.0225,0,-2.9918,-2.9966,-3.001,-3.005,-3.0077,-3.0133,-3.0132,-3.0161,-3.0151,-3.0155,-3.022,-3.0237,-3.0277,-3.0295,-3.0285,-3.0372,-3.0357,-3.033,-3.0283,-3.0369,-3.0403,-3.0417,-3.0232,-3.0231,-3.0229,-3.0228,0,0,-3.0052,-3.0087,-3.0104,-3.0121,-3.0151,-3.0187,-3.0241,-3.0281,-3.0306,-3.0333,-3.0378,-3.0436,-3.0411,-3.0433,-3.0424,-3.0462,-3.0547,-3.043,-3.043,-3.0451,-3.0644,-3.0665,-3.0682,-3.0533,-3.0536,-3.0538,-3.0642,0,-3.0155,-3.0251,-3.0245,-3.0334,-3.0378,-3.0352,-3.0399,-3.0421,-3.0426,-3.0463,-3.0468,-3.051,-3.0474,-3.0487,-3.0523,-3.0529,-3.0586,-3.0521,-3.0573,-3.0575,-3.0568,-3.0699,-3.0721,-3.0819,-3.0656,-3.0658,-3.066,0,-3.0288,-3.0322,-3.0416,-3.0439,-3.0457,-3.0499,-3.0536,-3.0572,-3.0596,-3.0597,-3.0621,-3.0607,-3.066,-3.0612,-3.0685,-3.0641,-3.0662,-3.0668,-3.0672,-3.0676,-3.0623,-3.0708,-3.085,-3.0865,-3.0681,-3.0679,-3.0677,0,-3.0377,-3.0445,-3.0511,-3.0527,-3.0555,-3.0586,-3.0599,-3.062,-3.0645,-3.0676,-3.0692,-3.0729,-3.0749,-3.0777,-3.0772,-3.0738,-3.0846,-3.0798,-3.0848,-3.0848,-3.0872,-3.0871,-3.102,-3.0885,-3.0885,-3.0885,-3.0885,0,-3.0492,-3.0551,-3.0551,-3.0591,-3.0656,-3.0648,-3.0712,-3.0721,-3.0741,-3.0782,-3.0761,-3.0799,-3.079,-3.0828,-3.0825,-3.0885,-3.0894,-3.0896,-3.0895,-3.0898,-3.0898,-3.0912,-3.0905,-3.0889,-3.0888,-3.0887,-3.0887,0,-3.0603,-3.0606,-3.0675,-3.0697,-3.0704,-3.075,-3.0768,-3.0805,-3.0809,-3.0861,-3.0872,-3.0877,-3.0921,-3.0919,-3.0967,-3.0965,-3.104,-3.103,-3.1032,-3.103,-3.1081,-3.1076,-3.1244,-3.1266,-3.1117,-3.1118,-3.112,0,-3.0677,-3.0721,-3.0748,-3.0775,-3.079,-3.0833,-3.0858,-3.0852,-3.0879,-3.0911,-3.0944,-3.0986,-3.1019,-3.1089,-3.1096,-3.1134,-3.1125,-3.1181,-3.113,-3.1132,-3.1126,-3.1123,-3.1128,-3.1191,-3.1193,-3.1194,-3.1195,0,-3.0807,-3.0806,-3.0845,-3.0884,-3.0915,-3.0945,-3.0972,-3.0994,-3.0991,-3.1022,-3.1067,-3.1093,-3.1143,-3.1185,-3.1221,-3.1232,-3.1213,-3.1211,-3.1225,-3.1229,-3.1229,-3.123,-3.106,-3.1207,-3.1206,-3.1205,-3.1205,-3.1204,-3.0901,-3.094,-3.0966,-3.1009,-3.1029,-3.1055,-3.1092,-3.11,-3.1138,-3.118,-3.1173,-3.1223,-3.1246,-3.1292,-3.1307,-3.1346,-3.1325,-3.1345,-3.135,-3.1355,-3.1361,-3.1223,-3.1352,-3.1352,-3.1351,-3.1351,-3.1351,0,-3.1031,-3.1046,-3.1086,-3.1126,-3.116,-3.114,-3.1169,-3.1199,-3.1244,-3.1267,-3.1301,-3.1352,-3.1392,-3.1403,-3.1441,-3.147,-3.1462,-3.148,-3.1478,-3.1481,-3.1377,-3.1361,-3.1486,-3.1486,-3.1486,-3.1486,-3.1486,-3.1486,-3.1102,-3.1167,-3.1169,-3.1243,-3.1257,-3.1308,-3.1326,-3.135,-3.1369,-3.1428,-3.1462,-3.1469,-3.1487,-3.1527,-3.1562,-3.1564,-3.1579,-3.1601,-3.16,-3.1502,-3.1488,-3.1476,-3.1461,-3.1604,-3.1605,-3.1701,-3.1702,-3.1702]}]]